Voltar ao catálogo

CHUANG XIN 26

CX-26

AtivoCiênciaLEO
NORAD 69972·PAYLOAD·🇨🇳 China

Lançado Jul 10, 2026 de Wenchang Space Launch Site

Loading…

Próximas Passagens (próximas 24 horas)

TLE

AtualizadoSource: Space-Track

Época: Sep 14, 2026, 14:58 UTC

1 69972U 26158A   26257.62386396 -.00000166  00000-0 -26561-5 0  9990
2 69972  49.9853  21.1655 0005185 158.9598 201.1530 14.25129430  9469

Acompanhe CHUANG XIN 26 em tempo real com AllMySat

Download on the App Store